Theta_e
307 307 307 307 306 308 309 309 309 310 310 311 311 311 312 312 313 322 324 322 330 326 341 343 347 350 351 346 347 345 343 337 336 336 337 340 344 346 348 351 352 350 352 348 353
306 306 307 307 307 307 308 309 309 310 310 310 311 312 312 312 322 324 323 318 324 324 341 343 345 348 346 340 340 343 338 335 334 334 335 336 340 344 350 350 354 353 354 351 354
304 305 305 306 307 308 308 308 309 310 310 311 311 311 312 313 329 331 326 320 324 329 338 336 337 341 336 332 335 337 336 333 333 333 333 336 337 341 348 351 350 354 357 353 353
303 304 304 305 306 307 308 308 309 310 310 311 311 311 312 323 330 331 325 321 325 334 336 330 335 333 331 333 331 334 334 332 332 332 337 338 339 341 345 346 348 349 354 353 353
302 303 303 303 304 306 308 308 309 309 310 311 312 312 316 321 322 322 322 323 329 330 330 328 330 330 332 332 331 332 333 332 331 333 340 339 340 340 342 342 345 350 352 353 351
302 302 303 303 304 306 307 308 309 310 311 312 312 312 321 319 323 329 335 336 333 330 326 327 327 326 328 330 331 332 331 332 333 336 342 341 342 342 346 345 349 352 353 352 351
301 301 302 302 303 305 307 308 309 310 311 312 315 312 319 320 323 331 334 334 332 327 325 323 322 324 328 330 330 329 331 333 335 335 336 340 341 343 343 348 352 353 352 353 354
300 301 301 302 303 305 307 308 309 311 313 317 315 321 319 317 319 324 326 326 324 325 322 323 324 326 327 328 328 330 333 333 334 334 335 334 334 335 345 350 354 354 353 354 356
299 300 301 302 303 304 307 308 310 313 317 314 323 321 320 317 319 320 322 323 323 323 323 322 324 326 327 327 331 332 332 333 331 331 333 332 331 334 344 348 354 356 356 356 358
299 300 301 301 302 304 307 310 313 319 322 322 324 324 321 321 322 323 323 324 324 325 324 324 326 326 326 327 328 331 332 330 330 331 331 332 331 335 339 346 352 355 359 358 358
299 300 301 301 302 304 308 317 321 324 319 322 324 322 320 321 322 323 323 324 325 325 324 326 326 326 326 327 328 328 329 329 329 329 329 332 331 336 341 343 351 355 358 358 357
299 299 300 301 302 305 309 318 313 311 318 320 320 321 321 321 322 323 322 325 324 324 324 325 325 326 326 326 326 327 327 328 327 328 329 331 333 342 349 347 346 353 356 357 357
299 298 300 302 303 309 310 315 310 311 320 320 321 320 321 320 322 323 324 325 325 324 324 325 325 325 325 325 326 327 327 327 326 328 329 331 331 340 346 353 349 347 352 354 356
299 298 300 301 308 307 314 311 308 311 320 320 319 321 320 321 321 323 323 325 325 324 325 325 325 324 324 324 325 325 326 326 326 327 329 330 330 337 345 355 356 351 351 354 356
299 299 299 299 305 310 310 308 310 314 318 320 320 319 321 321 322 322 322 324 325 325 325 326 324 323 322 323 325 325 326 326 327 328 330 330 329 334 350 347 355 357 355 354 355
300 299 299 308 307 308 308 308 313 319 317 318 320 320 320 321 321 322 322 323 324 325 325 325 324 325 324 324 325 326 325 327 329 328 330 330 330 330 333 335 346 358 356 354 354
300 300 299 304 308 307 307 313 319 319 318 318 319 321 321 322 321 321 322 323 323 325 326 325 325 324 324 324 325 325 327 328 329 328 328 332 329 330 330 340 348 352 357 355 355
300 300 307 306 309 308 309 317 320 319 319 319 319 320 321 322 321 322 322 323 324 325 325 327 327 325 325 324 325 326 327 328 330 329 328 332 327 329 331 340 351 350 354 352 350
300 306 309 311 310 310 312 318 320 319 318 317 318 319 321 322 322 321 322 323 324 324 325 326 326 324 324 324 325 326 327 327 329 328 327 326 328 331 330 338 348 353 354 354 347
303 308 311 312 311 310 312 316 319 318 318 319 318 320 321 323 323 323 323 323 323 323 325 325 325 324 324 325 325 326 328 328 328 329 330 328 330 330 335 338 351 353 357 358 352
307 310 314 311 310 311 312 315 316 318 318 318 320 320 321 322 322 324 324 326 325 322 324 324 325 325 324 325 325 326 326 327 327 330 330 329 329 330 330 337 349 352 352 357 355
307 310 312 309 312 311 311 314 312 316 317 317 318 318 319 319 321 324 325 327 326 327 323 324 325 325 325 325 326 327 327 328 328 331 329 330 329 329 329 337 348 350 352 354 350
307 310 313 311 313 312 311 313 314 315 316 317 317 317 318 319 321 323 323 323 325 327 328 326 324 326 326 325 325 325 325 327 328 333 332 331 329 333 340 342 346 353 355 353 346
309 316 318 313 315 316 314 314 313 315 315 316 317 317 318 320 320 323 322 323 323 329 325 325 329 329 326 327 326 327 326 326 329 329 329 331 330 341 343 343 345 348 354 354 349
311 316 320 320 316 314 316 318 319 319 318 317 318 317 317 319 320 321 322 322 323 329 333 333 335 331 328 328 326 327 326 326 328 329 332 333 332 345 345 345 345 346 352 354 353
316 319 320 321 320 320 317 322 322 321 321 320 319 319 319 319 321 321 321 324 324 325 328 332 334 334 332 328 329 328 329 329 330 331 333 335 339 344 345 345 346 346 345 348 353
306 312 317 320 322 321 321 321 321 321 322 320 320 320 321 321 320 321 324 328 328 328 327 329 332 332 331 330 330 329 330 330 332 334 337 334 347 346 348 348 353 352 350 347 344
Wind_Speed
19 20 20 21 22 22 21 21 22 21 21 22 22 21 21 22 19 4 9 6 11 23 20 18 10 8 9 5 5 5 5 7 12 12 11 6 4 4 1 6 6 6 2 8 21
20 20 21 21 23 23 22 22 23 22 21 22 22 22 21 22 9 10 6 9 13 25 22 17 10 11 4 3 3 7 6 10 10 10 14 9 6 5 6 8 8 8 7 16 21
21 21 22 22 23 23 23 23 24 23 22 22 22 22 20 17 8 4 4 6 16 24 15 8 7 8 7 4 2 4 9 15 13 12 14 13 7 8 11 8 9 11 14 17 20
22 22 23 24 25 25 25 25 25 23 24 23 22 20 18 3 2 2 5 10 22 14 13 9 7 7 7 6 1 9 13 11 15 14 11 8 6 4 11 5 5 8 17 19 18
22 23 24 26 26 25 25 26 25 25 24 24 22 17 8 7 3 2 8 16 24 11 16 10 9 8 11 7 7 11 13 14 15 15 8 6 5 4 4 2 4 12 17 17 16
22 23 25 27 28 26 26 26 26 26 25 24 19 11 5 10 4 5 15 22 16 14 13 11 7 7 9 10 9 11 15 19 11 7 2 7 3 2 6 7 7 12 16 16 15
23 24 25 27 28 27 27 27 27 27 25 20 14 4 8 10 5 10 17 18 14 13 9 9 7 9 3 9 5 10 14 16 3 5 7 8 10 2 3 8 10 12 14 13 12
24 24 26 28 29 28 28 27 26 25 19 13 5 2 7 3 7 11 14 12 13 14 9 4 6 8 9 6 11 11 15 15 8 3 3 10 10 8 4 7 9 12 14 12 11
26 27 26 27 29 28 29 28 24 14 6 2 1 5 7 4 7 12 16 11 15 11 8 3 7 8 6 13 15 14 14 15 11 1 10 6 14 5 3 5 9 12 14 14 14
26 27 27 28 28 29 27 24 12 6 3 3 4 6 7 3 4 6 12 12 11 11 8 9 8 10 11 11 14 16 13 12 10 3 12 14 11 6 3 4 9 11 13 16 17
28 28 27 28 28 26 23 7 6 6 8 11 2 8 2 2 5 9 10 12 12 13 15 12 11 13 14 10 9 9 11 18 15 14 10 14 9 5 5 5 9 13 14 16 17
29 30 28 27 28 16 11 5 5 5 9 11 16 18 21 10 6 10 11 11 12 17 16 8 16 13 5 7 10 11 14 16 15 7 9 13 6 3 3 2 7 13 14 16 15
27 30 29 27 21 6 8 2 6 6 7 8 12 13 14 14 13 17 16 15 14 16 16 18 10 3 9 13 13 15 15 13 15 8 12 11 11 9 5 4 5 11 12 14 15
25 29 30 30 3 14 2 0 12 4 6 9 8 7 7 10 9 20 22 15 13 16 16 13 15 12 15 14 13 15 8 6 12 11 15 10 8 9 6 6 6 8 11 11 13
27 27 28 25 14 6 3 12 9 4 6 4 10 5 6 13 2 11 20 19 20 17 10 15 10 11 17 18 11 12 3 8 12 12 17 11 8 4 6 9 9 9 9 10 11
28 28 28 8 9 11 10 11 4 7 11 4 5 10 11 14 11 6 10 13 15 22 15 20 4 8 11 9 10 6 10 11 9 12 11 16 7 12 6 6 1 7 9 9 9
29 30 24 11 4 6 12 5 6 11 3 8 6 9 9 12 15 15 14 17 15 16 17 18 18 15 10 14 12 9 12 10 9 10 12 7 6 9 10 2 4 4 7 8 9
33 29 12 11 7 6 5 7 12 10 19 4 4 8 11 7 12 16 18 19 23 22 16 20 18 20 16 21 15 17 16 11 9 11 9 7 7 5 4 3 3 5 6 9 9
30 11 7 3 4 8 6 13 11 14 4 8 10 10 10 7 5 9 18 19 19 21 20 14 16 5 8 17 18 15 11 13 11 9 9 13 3 10 14 12 7 8 11 12 13
18 10 4 3 4 10 8 18 13 2 8 5 11 3 8 4 8 8 13 10 12 15 20 11 10 10 10 8 6 13 6 10 10 15 12 10 4 9 7 6 7 11 13 14 13
7 5 5 1 9 6 11 16 16 7 6 5 3 5 6 2 6 6 6 6 6 9 13 15 11 9 10 13 14 9 13 10 12 5 9 11 8 4 7 4 4 9 12 14 14
6 4 4 5 6 6 12 10 4 11 13 11 7 8 8 8 7 5 6 3 3 6 10 16 11 14 13 5 4 6 9 15 11 14 11 9 10 7 6 3 1 4 10 11 9
6 4 3 2 5 8 10 10 11 12 12 10 12 7 9 9 5 5 2 4 4 5 6 8 9 12 15 8 7 11 13 12 11 7 11 10 8 6 4 5 5 2 7 7 6
4 3 4 5 5 6 4 10 12 9 13 14 16 13 12 11 11 7 5 4 0 2 3 5 4 12 12 11 8 18 15 14 14 11 13 12 14 13 10 10 11 0 7 7 7
3 1 3 1 8 9 8 9 10 9 8 6 10 18 16 15 14 13 12 6 6 5 3 2 5 5 6 3 5 7 13 16 17 18 10 10 8 10 9 10 10 8 1 6 8
4 4 4 8 6 8 5 8 11 9 9 10 12 10 14 17 15 11 12 7 4 4 2 1 1 4 8 4 4 8 7 9 13 6 9 5 9 9 6 9 11 11 7 1 7
4 4 4 3 5 5 3 5 7 7 7 13 10 9 11 13 17 5 5 4 2 1 1 2 2 5 8 2 6 9 5 7 6 3 5 10 7 7 7 9 11 13 12 9 6
Wind_Direction
2 359 358 356 355 354 353 351 351 351 346 345 341 343 339 334 329 289 241 260 185 160 146 153 169 180 194 265 246 268 274 19 21 359 348 94 253 167 136 158 180 170 77 111 145
360 355 352 350 349 348 348 347 345 342 342 341 337 337 334 331 304 247 260 245 199 164 159 168 173 173 228 263 247 272 310 353 352 335 321 324 243 185 205 197 195 165 113 141 154
358 355 350 346 344 343 342 341 340 337 336 334 333 333 331 328 263 86 302 213 190 156 172 186 173 202 262 258 188 305 303 327 331 356 319 309 244 225 211 208 220 190 156 162 165
355 352 350 346 342 339 338 337 336 333 330 328 329 330 325 297 304 54 309 170 170 165 180 187 191 229 263 264 245 282 304 314 316 325 325 305 308 223 232 254 201 167 158 167 173
353 350 347 346 342 336 333 331 330 328 325 323 323 327 326 264 266 315 138 153 163 184 189 203 225 260 272 301 284 254 301 309 305 318 322 308 266 300 300 245 225 143 159 171 172
352 349 344 343 339 334 329 327 326 323 320 318 317 319 281 273 120 153 153 163 185 198 216 226 249 273 283 282 276 324 304 299 307 318 97 304 8 247 66 148 163 159 170 172 168
352 347 343 341 337 331 326 325 323 319 316 312 309 285 260 267 157 154 162 182 193 212 226 227 260 243 305 260 298 284 291 296 185 355 17 322 234 158 74 178 166 169 175 170 160
352 346 343 340 336 329 324 322 318 313 311 309 294 223 267 183 180 187 186 194 211 218 241 251 239 263 257 290 251 261 274 270 107 303 47 331 335 33 131 173 162 162 173 170 166
350 346 342 340 336 329 324 321 313 308 318 48 254 251 266 182 213 222 202 212 202 208 212 205 221 256 204 241 248 233 260 271 287 304 304 307 314 97 146 174 160 174 178 183 180
349 345 342 340 337 331 325 319 300 286 293 293 254 249 213 200 160 172 195 216 198 178 181 212 220 233 220 238 245 256 250 254 259 291 299 295 300 66 57 213 175 185 187 193 196
347 341 340 340 334 334 334 326 237 194 212 254 347 274 209 265 226 207 184 189 209 211 222 203 239 228 241 241 305 301 276 275 280 282 274 280 296 338 320 222 185 190 200 201 205
347 343 338 339 334 334 345 339 60 335 298 251 252 257 262 274 272 217 180 200 202 217 215 209 235 252 256 258 244 250 261 270 278 306 241 273 285 280 303 253 225 205 210 210 199
347 343 338 337 335 1 324 104 356 321 255 264 227 250 234 198 238 237 194 214 220 226 210 237 252 77 228 234 237 245 257 275 280 252 262 267 236 218 206 250 246 224 221 213 202
344 343 338 337 359 334 300 84 330 239 263 231 214 221 188 220 242 228 206 214 218 236 224 246 260 241 238 245 249 253 250 280 283 261 248 204 272 198 202 237 218 219 224 215 205
337 339 335 336 302 295 331 319 317 227 261 137 174 116 163 198 17 192 207 206 233 219 218 226 217 227 232 235 228 253 348 294 289 260 256 214 250 164 174 260 218 222 220 222 209
331 332 330 331 290 274 304 317 247 229 233 209 177 194 196 208 219 140 189 230 232 241 217 256 189 217 228 209 223 272 271 250 252 253 230 244 251 273 212 237 95 187 221 217 206
326 325 311 281 286 307 311 248 217 240 124 208 204 195 217 230 220 217 194 197 204 212 223 228 222 224 231 236 217 236 249 250 220 217 243 108 247 272 326 238 279 227 197 199 200
328 320 301 257 265 313 245 218 232 228 234 86 266 251 240 191 223 213 222 226 215 219 233 221 234 216 219 231 234 213 242 255 261 254 247 152 262 270 300 216 196 225 184 181 188
332 320 284 279 249 218 233 215 225 245 314 269 256 263 232 199 268 217 219 224 218 220 226 230 240 144 233 215 220 223 235 260 272 255 278 276 288 246 235 246 217 200 186 186 189
328 306 259 255 186 191 227 235 232 308 301 254 259 241 249 207 238 205 200 223 226 214 227 217 248 186 172 191 203 258 232 213 230 263 265 265 252 269 221 254 213 199 194 188 196
309 293 34 184 163 208 232 231 243 218 281 299 285 272 259 302 288 260 202 127 213 189 218 224 226 181 175 206 214 185 228 239 285 300 283 273 262 148 266 303 253 203 190 183 188
304 271 51 132 213 215 238 225 305 255 227 258 278 271 279 312 301 268 232 11 20 191 197 216 226 235 210 188 300 248 241 205 225 208 241 284 286 142 260 3 319 195 181 172 179
309 286 146 310 241 215 227 250 244 255 239 240 242 249 272 285 281 260 246 102 17 199 181 172 222 224 232 208 205 234 229 232 239 282 262 262 246 119 45 15 39 280 162 176 176
291 275 151 212 281 292 259 237 239 221 259 255 256 257 256 257 253 279 253 163 86 20 327 193 226 245 249 229 221 205 225 215 218 233 232 219 262 84 32 30 25 71 193 183 189
227 52 2 243 229 250 282 299 272 252 228 251 236 240 244 245 254 242 250 221 182 146 203 254 241 231 263 282 233 243 230 208 216 232 264 321 183 57 24 20 26 18 211 194 207
307 336 337 280 275 260 219 266 271 280 241 246 235 250 226 231 237 238 243 248 247 163 194 198 209 268 230 201 225 226 229 216 220 231 245 246 124 45 46 33 25 26 22 289 234
340 277 283 282 240 251 214 290 319 315 260 249 281 277 259 246 239 299 292 342 40 322 99 316 304 251 236 182 238 218 178 226 176 210 285 228 53 33 39 32 42 27 22 12 336